Dyersburg, TN

7:22 AM CDT on July 22, 2017 (GMT -0500)
Dyersburg Municipal

Weather History for KDYR - April, 2013

Change the Weather History Date:

Wednesday, April 10, 2013

  Actual Average Record
Temperature  
Mean Temperature 75 °F -  
Max Temperature 84 °F 65 °F 87 °F (2011)
Min Temperature 64 °F 48 °F 35 °F (1997)
Cooling Degree Days 10    
Growing Degree Days 25 (Base 50)    
Moisture  
Dew Point 59 °F    
Average Humidity 56    
Maximum Humidity 73    
Minimum Humidity 45    
Precipitation  
Precipitation 0.37 in - - ()
Sea Level Pressure  
Sea Level Pressure 29.85 in    
Wind  
Wind Speed 10 mph (South)    
Max Wind Speed 20 mph    
Max Gust Speed 26 mph    
Visibility 10 miles    
Events Thunderstorm    
Averages and records for this station are not official NWS values.
T = Trace of Precipitation, MM = Missing Value Source: NWS Daily Summary

Daily Weather History Graph

Daily Weather History Graph

Search for Another Location

Airport or City:

Trip Planner

Search our weather history database for the weather conditions in past years. The results will help you decide how hot, cold, wet, or windy it might be!

Date:

Astronomy

Apr. 10, 2013 Rise Set
Actual Time 6:30 AM CDT 7:27 PM CDT
Civil Twilight 6:04 AM CDT 7:53 PM CDT
Nautical Twilight 5:33 AM CDT 8:24 PM CDT
Astronomical Twilight 5:01 AM CDT 8:56 PM CDT
Moon 6:28 AM CDT (4/10) 8:01 PM CDT (4/10)
Length of Visible Light 13h 48m
Length of Day
12h 56m
New Moon, 0% of the Moon is Illuminated
Apr 10
New Moon
Apr 18
First Quarter
Apr 25
Full
May 2
Last Quarter
May 9
New

Hourly Weather History & Observations

Time (CDT) Temp. Heat Index Dew Point Humidity Pressure Visibility Wind Dir Wind Speed Gust Speed Precip Events Conditions
12:15 AM 73.4 °F - 59.0 °F 61% 29.91 in 10.0 mi South 9.2 mph - N/A   Clear
12:35 AM 73.4 °F - 59.0 °F 61% 29.92 in 10.0 mi South 8.1 mph - N/A   Clear
12:55 AM 71.6 °F - 59.0 °F 64% 29.92 in 10.0 mi South 6.9 mph - N/A   Clear
1:15 AM 71.6 °F - 59.0 °F 64% 29.91 in 10.0 mi South 8.1 mph - N/A   Clear
1:35 AM 71.6 °F - 59.0 °F 64% 29.91 in 10.0 mi South 8.1 mph 17.3 mph N/A   Clear
1:55 AM 71.6 °F - 59.0 °F 64% 29.91 in 10.0 mi South 9.2 mph 17.3 mph N/A   Clear
2:15 AM 71.6 °F - 59.0 °F 64% 29.91 in 10.0 mi South 11.5 mph 16.1 mph N/A   Clear
2:35 AM 71.6 °F - 59.0 °F 64% 29.91 in 10.0 mi South 5.8 mph - N/A   Mostly Cloudy
2:55 AM 71.6 °F - 59.0 °F 64% 29.91 in 10.0 mi South 11.5 mph 17.3 mph N/A   Mostly Cloudy
3:15 AM 71.6 °F - 59.0 °F 64% 29.91 in 10.0 mi South 9.2 mph 16.1 mph N/A   Partly Cloudy
3:35 AM 71.6 °F - 59.0 °F 64% 29.90 in 10.0 mi South 11.5 mph 17.3 mph N/A   Scattered Clouds
3:55 AM 71.6 °F - 59.0 °F 64% 29.90 in 10.0 mi South 10.4 mph 16.1 mph N/A   Mostly Cloudy
4:15 AM 71.6 °F - 59.0 °F 64% 29.90 in 10.0 mi South 9.2 mph - N/A   Overcast
4:35 AM 71.6 °F - 57.2 °F 60% 29.89 in 10.0 mi SSE 8.1 mph - N/A   Overcast
4:55 AM 71.6 °F - 59.0 °F 64% 29.89 in 10.0 mi SSE 8.1 mph 17.3 mph N/A   Overcast
5:15 AM 71.6 °F - 57.2 °F 60% 29.89 in 10.0 mi South 10.4 mph 18.4 mph N/A   Mostly Cloudy
5:35 AM 71.6 °F - 57.2 °F 60% 29.90 in 10.0 mi SSE 10.4 mph - N/A   Mostly Cloudy
5:55 AM 71.6 °F - 57.2 °F 60% 29.91 in 10.0 mi South 6.9 mph - N/A   Overcast
6:15 AM 71.6 °F - 57.2 °F 60% 29.92 in 10.0 mi South 5.8 mph - N/A   Overcast
6:35 AM 71.6 °F - 57.2 °F 60% 29.93 in 10.0 mi South 8.1 mph - N/A   Overcast
6:55 AM 71.6 °F - 57.2 °F 60% 29.93 in 10.0 mi South 8.1 mph - N/A   Overcast
7:15 AM 71.6 °F - 57.2 °F 60% 29.93 in 10.0 mi SSE 8.1 mph - N/A   Overcast
7:35 AM 71.6 °F - 57.2 °F 60% 29.93 in 10.0 mi SSE 6.9 mph - N/A   Overcast
7:55 AM 71.6 °F - 57.2 °F 60% 29.93 in 10.0 mi SSE 8.1 mph - N/A   Overcast
8:15 AM 71.6 °F - 59.0 °F 64% 29.93 in 10.0 mi SSE 9.2 mph - N/A   Overcast
8:35 AM 73.4 °F - 59.0 °F 61% 29.93 in 10.0 mi SSE 6.9 mph - N/A   Mostly Cloudy
8:55 AM 73.4 °F - 60.8 °F 65% 29.94 in 10.0 mi South 10.4 mph 18.4 mph N/A   Mostly Cloudy
9:15 AM 73.4 °F - 59.0 °F 61% 29.94 in 8.0 mi South 9.2 mph 16.1 mph N/A   Overcast
9:35 AM 75.2 °F - 60.8 °F 61% 29.95 in 10.0 mi SSE 6.9 mph - N/A   Mostly Cloudy
9:55 AM 75.2 °F - 60.8 °F 61% 29.95 in 10.0 mi South 11.5 mph 17.3 mph N/A   Mostly Cloudy
10:15 AM 77.0 °F - 60.8 °F 57% 29.95 in 10.0 mi SSE 9.2 mph 21.9 mph N/A   Mostly Cloudy
10:35 AM 77.0 °F - 60.8 °F 57% 29.95 in 10.0 mi SSE 13.8 mph 18.4 mph N/A   Partly Cloudy
10:55 AM 78.8 °F - 60.8 °F 54% 29.95 in 10.0 mi SSE 9.2 mph 23.0 mph N/A   Clear
11:15 AM 78.8 °F - 60.8 °F 54% 29.95 in 10.0 mi South 8.1 mph 17.3 mph N/A   Clear
11:35 AM 80.6 °F 81.5 °F 60.8 °F 51% 29.94 in 10.0 mi South 11.5 mph 20.7 mph N/A   Clear
12:15 PM 80.6 °F 81.5 °F 60.8 °F 51% 29.93 in 10.0 mi South 17.3 mph 21.9 mph N/A   Partly Cloudy
12:35 PM 80.6 °F 81.5 °F 60.8 °F 51% 29.92 in 10.0 mi South 10.4 mph 20.7 mph N/A   Clear
1:15 PM 80.6 °F 81.5 °F 60.8 °F 51% 29.91 in 10.0 mi South 12.7 mph 24.2 mph N/A   Partly Cloudy
1:35 PM 80.6 °F 81.5 °F 60.8 °F 51% 29.90 in 10.0 mi South 10.4 mph 20.7 mph N/A   Mostly Cloudy
1:55 PM 80.6 °F 81.5 °F 60.8 °F 51% 29.89 in 10.0 mi South 12.7 mph 20.7 mph N/A   Overcast
2:15 PM 82.4 °F 83.4 °F 62.6 °F 51% 29.88 in 10.0 mi SSE 13.8 mph 21.9 mph N/A   Overcast
2:35 PM 84.2 °F 85.0 °F 62.6 °F 48% 29.87 in 10.0 mi South 17.3 mph 24.2 mph N/A   Scattered Clouds
2:55 PM 82.4 °F 82.9 °F 60.8 °F 48% 29.86 in 10.0 mi South 18.4 mph 26.5 mph N/A   Mostly Cloudy
3:15 PM 82.4 °F 82.9 °F 60.8 °F 48% 29.85 in 10.0 mi SSE 16.1 mph 20.7 mph N/A   Mostly Cloudy
3:35 PM 82.4 °F 82.9 °F 60.8 °F 48% 29.83 in 10.0 mi South 19.6 mph 25.3 mph N/A   Scattered Clouds
3:55 PM 82.4 °F 82.9 °F 60.8 °F 48% 29.82 in 10.0 mi South 11.5 mph 24.2 mph N/A   Mostly Cloudy
4:15 PM 82.4 °F 82.9 °F 60.8 °F 48% 29.81 in 10.0 mi South 12.7 mph 24.2 mph N/A   Partly Cloudy
4:35 PM 82.4 °F 82.9 °F 60.8 °F 48% 29.80 in 10.0 mi South 12.7 mph 26.5 mph N/A   Clear
4:55 PM 82.4 °F 82.5 °F 59.0 °F 45% 29.79 in 10.0 mi South 17.3 mph 24.2 mph N/A   Clear
5:15 PM 80.6 °F 81.1 °F 59.0 °F 48% 29.77 in 10.0 mi SSE 11.5 mph 24.2 mph N/A   Mostly Cloudy
5:35 PM 80.6 °F 81.1 °F 59.0 °F 48% 29.77 in 10.0 mi SSE 12.7 mph 21.9 mph N/A   Partly Cloudy
5:55 PM 80.6 °F 81.1 °F 59.0 °F 48% 29.75 in 9.0 mi SSE 15.0 mph 18.4 mph N/A   Clear
6:15 PM 78.8 °F - 59.0 °F 51% 29.74 in 6.0 mi SSE 9.2 mph 23.0 mph N/A   Clear
6:35 PM 78.8 °F - 57.2 °F 47% 29.71 in 10.0 mi SSE 12.7 mph 18.4 mph N/A   Clear
6:55 PM 78.8 °F - 57.2 °F 47% 29.73 in 10.0 mi SSE 10.4 mph 16.1 mph N/A   Clear
7:15 PM 78.8 °F - 57.2 °F 47% 29.71 in 3.0 mi SSE 12.7 mph 23.0 mph N/A   Clear
7:35 PM 78.8 °F - 57.2 °F 47% 29.71 in 10.0 mi SSE 10.4 mph 19.6 mph N/A   Clear
7:55 PM 77.0 °F - 57.2 °F 50% 29.70 in 10.0 mi SE 11.5 mph 17.3 mph N/A   Clear
8:15 PM 77.0 °F - 55.4 °F 47% 29.70 in 10.0 mi SSE 13.8 mph 18.4 mph N/A   Partly Cloudy
8:35 PM 77.0 °F - 57.2 °F 50% 29.72 in 10.0 mi SE 11.5 mph 19.6 mph N/A   Partly Cloudy
8:55 PM 78.8 °F - 57.2 °F 47% 29.72 in 10.0 mi SSE 11.5 mph 17.3 mph N/A   Clear
9:15 PM 78.8 °F - 57.2 °F 47% 29.73 in 10.0 mi SSE 12.7 mph 19.6 mph N/A   Clear
9:35 PM 78.8 °F - 57.2 °F 47% 29.74 in 10.0 mi South 11.5 mph 19.6 mph N/A   Clear
9:55 PM 77.0 °F - 57.2 °F 50% 29.73 in 10.0 mi SSE 10.4 mph 18.4 mph N/A   Partly Cloudy
10:15 PM 75.2 °F - 57.2 °F 53% 29.72 in 10.0 mi SSE 8.1 mph 17.3 mph N/A   Mostly Cloudy
10:35 PM 75.2 °F - 57.2 °F 53% 29.73 in 10.0 mi SSE 12.7 mph 17.3 mph N/A   Mostly Cloudy
10:55 PM 73.4 °F - 57.2 °F 57% 29.75 in 10.0 mi SSW 8.1 mph - N/A Thunderstorm Thunderstorm
11:15 PM 68.0 °F - 55.4 °F 64% 29.76 in 10.0 mi WNW 8.1 mph 20.7 mph N/A Thunderstorm Overcast
11:35 PM 66.2 °F - 55.4 °F 68% 29.74 in 5.0 mi WNW 8.1 mph - 0.23 in Thunderstorm Thunderstorm
11:55 PM 64.4 °F - 55.4 °F 73% 29.74 in 10.0 mi NW 3.5 mph - 0.37 in Thunderstorm Thunderstorm